Tracking 35275 objects as of 9-Sep-2026
HD Live streaming from Space Station
objects crossing your sky now

DELTA 1 DEB


DELTA 1 DEB is no longer on orbit


NORAD ID: 8099
Int'l Code: 1972-058EA
Launch date: July 23, 1972
Source: United States (US)
Launch site: AIR FORCE WESTERN TEST RANGE (AFWTR)
Decay date: 1991-04-27

Note: This is SATELLITE DEBRIS
Your satellite tracking list
Your tracking list is empty




NASA's NSSDC Master Catalog

Two Line Element Set (TLE):
1 08099U 72058 EA 91117.31743874  .20604871 +10700-4 +59862-2 0  9996
2 08099 098.5770 242.6817 0009873 315.4112 046.0531 16.27271537981815
Source of the keplerian elements: AFSPC